RAPTOR 2

operational
NORAD ID: 58959 Int'l Des: 2024-028 Owner: SDA Country: US
LEOCIRCULAR

About RAPTOR 2

Description loading...

Live Position

Loading 3D Globe...

Upcoming Passes

Altitude History

Altitude vs Time

uPlot chart will show altitude changes over time

Two-Line Element Set

1 58959U 24028E 25338.70083573 .00000019 00000-0 10783-3 0 9998
2 58959 39.9892 216.6097 0012340 219.0992 140.8864 13.70537288 90386
Epoch: Dec 4, 2025 • Age: 10 hours

Current Status

Altitude 1005.0 km
Velocity 7.35 km/s
Sub-Earth Point -29.18°S, 52.85°E
Launch Date Feb 14, 2024
Age 1.8 years
Type other

Technical Details

Classification Payload
Mass 1000.00 kg
Dry Mass 1000.00 kg
Total Mass 1000.00 kg
Length 1.00 m
Diameter 0.60 m
Span 2.00 m
Shape Box + panels
Manufacturer HARRL3
Bus Type TPL0-L3H
Phase Status In Orbit
Owner/State SDA/US

Large Constellations

Loading constellations...